GW6666 Weather Reports


Display with metric or nautical units.
time (UTC)temp
F
wind
direction
speed
MPH
gust
MPH
rain 1hr
in
rain 24hr
in
rain mn
in
humidity
%
barometer
mb
20260510071337 49 343 2.0 3.0 0.00 0.00 0.00 99 1012.8
20260510070836 49 314 2.0 4.0 0.00 0.00 0.00 99 1012.9
20260510070333 49 328 0.0 7.0 0.00 0.00 0.00 99 1012.8
20260510065833 49 332 3.0 5.0 0.00 0.00 0.00 99 1012.5
20260510065330 49 94 3.0 4.0 0.00 0.00 0.00 99 1012.0
20260510064826 48 117 4.0 4.0 0.00 0.00 0.00 99 1012.2
20260510064324 48 114 3.0 3.0 0.00 0.00 0.00 99 1012.2
20260510063820 48 108 3.0 4.0 0.00 0.00 0.00 99 1012.1
20260510063317 48 76 0.0 2.0 0.00 0.00 0.00 99 1012.2
20260510062813 48 136 1.0 2.0 0.00 0.00 0.00 99 1012.3
20260510062309 48 159 0.0 0.0 0.00 0.00 0.00 99 1012.3
20260510061805 48 112 2.0 3.0 0.00 0.00 0.00 99 1012.4
20260510061303 48 170 1.0 2.0 0.00 0.00 0.00 99 1012.5
20260510060758 48 131 2.0 3.0 0.00 0.00 0.00 99 1012.4
20260510060255 48 116 2.0 2.0 0.00 0.00 0.00 98 1012.5
20260510055752 49 83 2.0 3.0 0.00 0.00 0.00 99 1012.6
20260510055250 49 88 2.0 2.0 0.00 0.00 0.00 99 1012.5
20260510054749 49 11 2.0 3.0 0.00 0.00 0.00 99 1012.7
20260510054246 49 343 2.0 6.0 0.00 0.00 0.00 99 1012.8
20260510053745 48 326 3.0 4.0 0.00 0.00 0.00 99 1012.5
20260510053242 48 23 1.0 5.0 0.00 0.00 0.00 99 1012.3
20260510052738 48 4 2.0 2.0 0.00 0.00 0.00 98 1012.2
20260510052234 48 12 2.0 2.0 0.00 0.00 0.00 98 1012.1
20260510051730 48 341 0.0 1.0 0.00 0.00 0.00 98 1012.1
20260510051227 47 14 1.0 1.0 0.00 0.00 0.00 98 1012.1
20260510050723 47 128 0.0 0.0 0.00 0.00 0.00 98 1011.9
20260510050221 48 115 0.0 0.0 0.00 0.00 0.00 98 1012.0
20260510045717 48 205 0.0 1.0 0.00 0.00 0.00 98 1012.0
20260510045214 48 30 1.0 2.0 0.00 0.00 0.00 98 1012.2
20260510044710 48 269 0.0 0.0 0.00 0.00 0.00 98 1012.2
20260510044209 48 237 0.0 2.0 0.00 0.00 0.00 98 1012.0
20260510043703 48 224 0.0 1.0 0.00 0.00 0.00 98 1012.4
20260510043200 48 159 0.0 0.0 0.00 0.00 0.00 98 1012.1
20260510042657 49 113 0.0 2.0 0.00 0.00 0.00 98 1012.1
20260510042154 49 173 1.0 2.0 0.00 0.00 0.00 98 1012.3
20260510041651 49 13 0.0 1.0 0.00 0.00 0.00 98 1012.2
20260510041148 50 30 0.0 1.0 0.00 0.00 0.00 98 1012.2
20260510040645 49 234 0.0 0.0 0.00 0.00 0.00 98 1012.1
20260510040142 49 224 0.0 0.0 0.00 0.00 0.00 97 1012.1
20260510035637 50 64 0.0 1.0 0.00 0.22 0.22 98 1012.2
20260510035132 50 44 0.0 0.0 0.00 0.22 0.22 98 1012.2
20260510034630 50 222 0.0 1.0 0.00 0.22 0.22 98 1012.3
20260510034127 50 236 0.0 1.0 0.00 0.22 0.22 97 1012.2
20260510033623 50 113 0.0 0.0 0.00 0.22 0.22 97 1012.2
20260510033121 50 132 0.0 2.0 0.00 0.22 0.22 97 1012.0
20260510032617 50 124 0.0 2.0 0.00 0.22 0.22 97 1012.0
20260510032112 51 172 0.0 1.0 0.00 0.22 0.22 97 1011.8
20260510031607 51 209 0.0 2.0 0.00 0.22 0.22 97 1011.9
20260510031104 51 236 0.0 2.0 0.00 0.22 0.22 97 1012.1
20260510030559 51 328 1.0 2.0 0.00 0.22 0.22 97 1011.7
20260510030057 51 324 0.0 2.0 0.00 0.22 0.22 97 1012.0
20260510025554 51 335 0.0 1.0 0.00 0.22 0.22 97 1012.1
20260510025052 51 224 1.0 1.0 0.00 0.22 0.22 97 1012.1
20260510024548 52 144 0.0 2.0 0.00 0.22 0.22 97 1011.9
20260510024044 52 201 0.0 1.0 0.00 0.22 0.22 97 1011.9
20260510023540 52 143 0.0 3.0 0.00 0.22 0.22 97 1012.0
20260510023039 52 129 3.0 3.0 0.00 0.22 0.22 97 1011.9
20260510022538 52 72 1.0 2.0 0.00 0.22 0.22 96 1011.9
20260510022037 52 89 0.0 0.0 0.00 0.22 0.22 96 1011.7
20260510021535 52 44 0.0 1.0 0.00 0.22 0.22 96 1011.9
20260510021032 52 108 1.0 2.0 0.00 0.22 0.22 96 1011.9
20260510020526 52 142 1.0 2.0 0.00 0.22 0.22 96 1011.7
20260510020022 52 151 0.0 2.0 0.00 0.22 0.22 95 1011.7
20260510015518 52 146 0.0 2.0 0.00 0.22 0.22 95 1011.7
20260510015014 52 119 0.0 2.0 0.00 0.22 0.22 95 1011.7
20260510014511 52 110 2.0 2.0 0.00 0.22 0.22 95 1011.6
20260510014008 52 128 1.0 2.0 0.00 0.22 0.22 94 1011.6
20260510013502 52 139 0.0 1.0 0.00 0.22 0.22 94 1011.7
20260510012958 52 124 1.0 2.0 0.00 0.22 0.22 93 1011.5
20260510012453 52 96 0.0 2.0 0.00 0.22 0.22 93 1011.5
20260510011948 52 109 0.0 1.0 0.00 0.22 0.22 92 1011.5
20260510011443 53 120 0.0 2.0 0.00 0.22 0.22 91 1011.5
20260510010939 53 138 0.0 2.0 0.00 0.22 0.22 91 1011.4
20260510010437 53 119 1.0 3.0 0.00 0.22 0.22 91 1011.4
20260510005933 54 109 2.0 3.0 0.00 0.22 0.22 90 1011.4
20260510005429 54 128 2.0 2.0 0.00 0.22 0.22 89 1011.3
20260510004927 54 119 2.0 3.0 0.00 0.22 0.22 88 1011.3
20260510004424 55 128 2.0 2.0 0.00 0.22 0.22 87 1011.2
20260510003922 55 116 0.0 2.0 0.00 0.22 0.22 86 1011.1
20260510003419 55 105 1.0 2.0 0.00 0.22 0.22 86 1011.1
20260510002918 56 76 0.0 1.0 0.00 0.22 0.22 84 1011.1
20260510002415 56 135 0.0 2.0 0.00 0.22 0.22 83 1010.9
20260510001911 57 157 0.0 2.0 0.00 0.22 0.22 82 1010.8
20260510001409 57 149 0.0 2.0 0.00 0.22 0.22 81 1010.7
20260510000906 57 142 0.0 2.0 0.00 0.22 0.22 80 1010.6
20260510000403 58 163 0.0 2.0 0.00 0.22 0.22 79 1010.5
20260509235859 58 142 0.0 2.0 0.00 0.22 0.22 79 1010.7
20260509235356 58 156 2.0 2.0 0.00 0.22 0.22 78 1010.6
20260509234852 59 113 0.0 1.0 0.00 0.22 0.22 76 1010.6
20260509234349 59 131 2.0 3.0 0.00 0.22 0.22 76 1010.6
20260509233848 60 150 3.0 4.0 0.00 0.22 0.22 75 1010.4
20260509233345 60 171 2.0 2.0 0.00 0.22 0.22 73 1010.5
20260509232840 60 186 2.0 3.0 0.00 0.22 0.22 73 1010.6
20260509232338 61 164 0.0 2.0 0.00 0.22 0.22 75 1010.6
20260509231834 61 135 2.0 4.0 0.00 0.22 0.22 73 1010.4
20260509231331 61 169 2.0 4.0 0.00 0.22 0.22 73 1010.5
20260509230829 61 183 0.0 2.0 0.00 0.22 0.22 73 1010.6
20260509230326 61 174 2.0 4.0 0.00 0.22 0.22 75 1010.6
20260509225820 61 120 3.0 3.0 0.00 0.22 0.22 73 1010.6
20260509225318 61 147 3.0 3.0 0.00 0.22 0.22 74 1010.6
20260509224814 62 113 4.0 5.0 0.00 0.22 0.22 74 1010.6
20260509224310 62 181 2.0 3.0 0.00 0.22 0.22 72 1010.5
20260509223807 61 174 1.0 2.0 0.00 0.22 0.22 74 1010.5
20260509223304 60 286 0.0 4.0 0.00 0.22 0.22 75 1010.4
20260509222800 60 101 5.0 6.0 0.00 0.22 0.22 79 1010.6
20260509222256 60 113 4.0 4.0 0.00 0.22 0.22 78 1010.6
20260509221752 60 6 0.0 3.0 0.00 0.22 0.22 77 1010.8
20260509221249 59 253 2.0 3.0 0.00 0.22 0.22 79 1010.8
20260509220744 58 293 0.0 5.0 0.00 0.22 0.22 80 1010.7
20260509220241 58 215 0.0 4.0 0.00 0.22 0.22 81 1010.7
20260509215736 58 318 1.0 4.0 0.00 0.22 0.22 81 1011.2
20260509215233 58 192 0.0 3.0 0.00 0.22 0.22 81 1010.9
20260509214730 58 190 1.0 2.0 0.00 0.22 0.22 81 1010.7
20260509214227 58 244 3.0 4.0 0.00 0.22 0.22 81 1010.7
20260509213724 58 286 2.0 4.0 0.00 0.22 0.22 80 1010.9
20260509213220 58 243 3.0 4.0 0.00 0.22 0.22 81 1010.7
20260509212718 59 172 3.0 5.0 0.00 0.22 0.22 79 1010.8
20260509212214 59 177 4.0 8.0 0.00 0.22 0.22 81 1010.7
20260509211710 58 150 3.0 4.0 0.00 0.22 0.22 83 1010.9
20260509211207 58 199 3.0 3.0 0.00 0.22 0.22 86 1010.8
20260509210704 57 183 4.0 4.0 0.00 0.22 0.22 86 1011.0
20260509210201 57 174 1.0 3.0 0.00 0.22 0.22 87 1011.1
20260509205701 57 237 2.0 5.0 0.00 0.22 0.22 87 1011.1
20260509205200 57 207 1.0 4.0 0.00 0.22 0.22 87 1011.2
20260509204657 57 198 4.0 4.0 0.00 0.22 0.22 87 1011.2
20260509204153 56 358 2.0 3.0 0.00 0.22 0.22 87 1011.3
20260509203649 56 232 6.0 6.0 0.00 0.22 0.22 88 1011.3
20260509203148 56 257 5.0 5.0 0.00 0.22 0.22 87 1011.4
20260509202643 56 301 5.0 6.0 0.00 0.22 0.22 87 1011.4
20260509202138 56 331 2.0 4.0 0.00 0.22 0.22 87 1011.6
20260509201633 56 257 3.0 4.0 0.00 0.22 0.22 87 1011.4
20260509201132 56 194 2.0 3.0 0.00 0.22 0.22 86 1011.4
20260509200627 56 239 3.0 4.0 0.00 0.22 0.22 88 1011.4
20260509200122 56 169 0.0 3.0 0.00 0.22 0.22 87 1011.2
20260509195618 56 263 2.0 3.0 0.00 0.22 0.22 87 1011.4
20260509195113 56 164 2.0 4.0 0.00 0.22 0.22 88 1011.3
20260509194612 56 122 1.0 1.0 0.00 0.22 0.22 89 1011.5
20260509194111 56 133 2.0 2.0 0.00 0.22 0.22 91 1011.5
20260509193606 56 116 1.0 3.0 0.02 0.22 0.22 91 1011.7
20260509193102 56 144 3.0 4.0 0.02 0.22 0.22 92 1011.8
20260509192559 55 137 2.0 3.0 0.00 0.22 0.22 92 1011.9
20260509192054 55 122 1.0 2.0 0.02 0.22 0.22 92 1011.7
20260509191554 55 131 2.0 3.0 0.02 0.22 0.22 92 1011.9
20260509191050 55 110 2.0 4.0 0.02 0.22 0.22 92 1011.9
20260509190548 55 189 4.0 4.0 0.05 0.22 0.22 92 1012.3
20260509190045 55 192 2.0 2.0 0.05 0.21 0.21 92 1012.4
20260509185543 55 141 2.0 2.0 0.02 0.20 0.20 92 1012.4
20260509185039 55 136 1.0 3.0 0.02 0.20 0.20 91 1012.5
20260509184537 54 280 2.0 3.0 0.02 0.20 0.20 90 1012.4
20260509184033 55 148 2.0 3.0 0.02 0.20 0.20 91 1012.6
20260509183528 55 210 0.0 4.0 0.05 0.19 0.19 91 1012.7
20260509183025 55 187 4.0 4.0 0.05 0.19 0.19 90 1012.7
20260509182521 55 192 4.0 4.0 0.05 0.18 0.18 91 1012.8
20260509182018 55 222 3.0 3.0 0.02 0.18 0.18 90 1012.5
20260509181517 55 187 1.0 3.0 0.02 0.18 0.18 91 1012.7
20260509181014 55 195 2.0 6.0 0.02 0.18 0.18 90 1012.8
20260509180509 55 211 2.0 4.0 0.02 0.17 0.17 89 1012.7
20260509180007 55 189 0.0 5.0 0.02 0.17 0.17 90 1012.7
20260509175502 55 194 1.0 4.0 0.02 0.17 0.17 89 1012.7
20260509174959 55 228 3.0 4.0 0.07 0.17 0.17 89 1012.6
20260509174455 55 194 2.0 3.0 0.07 0.17 0.17 89 1012.5
20260509173950 55 247 0.0 3.0 0.05 0.16 0.16 90 1012.7
20260509173451 55 265 3.0 4.0 0.07 0.15 0.15 87 1012.6
20260509172947 55 211 0.0 4.0 0.07 0.15 0.15 88 1012.5
20260509172445 55 276 3.0 6.0 0.12 0.14 0.14 87 1012.3
20260509171940 55 261 3.0 9.0 0.19 0.13 0.13 85 1012.6
20260509171436 55 43 0.0 3.0 0.24 0.12 0.12 86 1012.1
20260509170933 56 252 2.0 6.0 0.19 0.10 0.10 84 1012.4
20260509170428 56 262 8.0 10.0 0.12 0.08 0.08 85 1012.6
20260509165924 57 303 3.0 6.0 0.09 0.07 0.07 86 1012.6
20260509165418 57 231 2.0 7.0 0.05 0.06 0.06 85 1012.9
20260509164914 57 203 1.0 5.0 0.02 0.05 0.05 85 1012.7
20260509164411 57 221 3.0 6.0 0.02 0.05 0.05 84 1012.7
20260509163906 58 205 2.0 4.0 0.05 0.05 0.05 84 1012.6
20260509163404 58 199 3.0 5.0 0.07 0.04 0.04 83 1012.7
20260509162902 58 263 2.0 4.0 0.07 0.04 0.04 81 1012.7
20260509162401 58 244 4.0 9.0 0.05 0.03 0.03 79 1012.7
20260509161857 59 252 4.0 9.0 0.07 0.03 0.03 78 1012.7
20260509161353 59 45 0.0 6.0 0.07 0.02 0.02 78 1012.6
20260509160849 59 209 3.0 3.0 0.02 0.02 0.02 79 1012.8
20260509160345 59 180 4.0 8.0 0.02 0.01 0.01 76 1012.8
20260509155840 59 218 2.0 6.0 0.02 0.01 0.01 75 1012.6
20260509155337 59 211 4.0 9.0 0.00 0.01 0.01 74 1013.0
20260509154834 59 180 3.0 6.0 0.00 0.01 0.01 73 1013.0
20260509154330 59 292 1.0 5.0 0.00 0.01 0.01 73 1012.7
20260509153827 59 214 5.0 7.0 0.00 0.01 0.01 73 1012.9
20260509153324 59 184 6.0 9.0 0.00 0.01 0.01 74 1012.9
20260509152821 58 189 4.0 6.0 0.00 0.01 0.01 74 1012.8
20260509152317 58 108 2.0 9.0 0.00 0.01 0.01 74 1012.9
20260509151815 58 201 2.0 7.0 0.00 0.01 0.01 75 1012.9
20260509151310 58 220 5.0 5.0 0.00 0.01 0.01 74 1012.8
20260509150809 58 185 3.0 5.0 0.00 0.01 0.01 75 1012.8
20260509150306 58 201 6.0 9.0 0.00 0.01 0.01 75 1013.0
20260509145803 58 213 6.0 6.0 0.00 0.01 0.01 74 1012.7
20260509145306 58 176 2.0 4.0 0.00 0.01 0.01 75 1012.6
20260509144800 58 159 1.0 2.0 0.00 0.01 0.01 76 1012.5
20260509144257 58 144 2.0 3.0 0.00 0.01 0.01 75 1012.6
20260509143754 58 54 1.0 4.0 0.00 0.01 0.01 75 1012.7
20260509143251 58 168 2.0 5.0 0.00 0.01 0.01 74 1012.8
20260509142747 58 225 2.0 4.0 0.00 0.01 0.01 74 1012.8
20260509142243 58 174 0.0 4.0 0.00 0.01 0.01 76 1012.9
20260509141739 57 92 4.0 4.0 0.00 0.01 0.01 76 1012.8
20260509141237 57 102 3.0 3.0 0.00 0.01 0.01 77 1012.7
20260509140733 57 148 0.0 2.0 0.00 0.01 0.01 76 1012.8
20260509140230 58 183 2.0 2.0 0.00 0.01 0.01 76 1012.6
20260509135728 57 132 1.0 2.0 0.00 0.01 0.01 76 1012.7
20260509135226 57 73 2.0 2.0 0.00 0.01 0.01 75 1012.6
20260509134722 57 180 1.0 3.0 0.00 0.01 0.01 75 1012.6
20260509134220 57 143 3.0 3.0 0.00 0.01 0.01 76 1012.4
20260509133717 57 181 3.0 4.0 0.00 0.01 0.01 76 1012.5
20260509133213 57 80 0.0 4.0 0.00 0.01 0.01 76 1012.3
20260509132712 57 163 2.0 3.0 0.02 0.01 0.01 78 1012.7
20260509132210 57 154 2.0 4.0 0.02 0.01 0.01 77 1012.6
20260509131706 56 112 3.0 6.0 0.00 0.00 0.00 75 1012.4
20260509131203 56 100 4.0 5.0 0.00 0.00 0.00 76 1012.4
20260509130659 56 105 5.0 6.0 0.00 0.00 0.00 76 1012.3
20260509130155 56 93 3.0 5.0 0.02 0.00 0.00 76 1012.6
20260509125652 56 123 2.0 4.0 0.02 0.00 0.00 76 1012.7
20260509125148 56 104 4.0 5.0 0.00 0.00 0.00 75 1012.4
20260509124645 55 104 4.0 4.0 0.00 0.00 0.00 77 1012.7
20260509124142 55 92 3.0 4.0 0.00 0.00 0.00 75 1012.7
20260509123640 55 189 1.0 3.0 0.00 0.00 0.00 77 1012.7
20260509123137 55 108 4.0 4.0 0.00 0.00 0.00 76 1012.6
20260509122632 55 100 2.0 2.0 0.00 0.00 0.00 76 1012.8
20260509122130 55 92 2.0 3.0 0.00 0.00 0.00 76 1012.7
20260509121626 54 77 3.0 4.0 0.00 0.00 0.00 76 1012.8
20260509121124 54 106 2.0 4.0 0.00 0.00 0.00 76 1013.0
20260509120622 54 84 3.0 4.0 0.00 0.00 0.00 77 1012.8
20260509120120 54 91 2.0 4.0 0.00 0.00 0.00 77 1012.9
20260509115617 54 100 3.0 4.0 0.00 0.00 0.00 79 1012.9
20260509115115 53 94 4.0 6.0 0.00 0.00 0.00 78 1012.7
20260509114612 53 121 6.0 6.0 0.00 0.00 0.00 78 1012.7
20260509114112 53 95 6.0 6.0 0.00 0.00 0.00 79 1012.5
20260509113609 53 115 4.0 6.0 0.00 0.00 0.00 79 1012.4
20260509113106 53 100 6.0 6.0 0.00 0.00 0.00 79 1012.5
20260509112602 52 87 5.0 6.0 0.00 0.00 0.00 79 1012.6
20260509112100 52 79 6.0 7.0 0.00 0.00 0.00 79 1012.5
20260509111557 52 104 3.0 4.0 0.00 0.00 0.00 80 1012.5
20260509111054 52 104 4.0 5.0 0.00 0.00 0.00 80 1012.5
20260509110551 52 62 3.0 4.0 0.00 0.00 0.00 79 1012.7
20260509110048 52 84 3.0 4.0 0.00 0.00 0.00 79 1012.6
20260509105546 52 108 2.0 2.0 0.00 0.00 0.00 79 1012.6
20260509105043 52 134 2.0 4.0 0.00 0.00 0.00 79 1012.4
20260509104540 52 92 3.0 5.0 0.00 0.00 0.00 78 1012.3
20260509104037 52 86 3.0 4.0 0.00 0.00 0.00 78 1012.2
20260509103535 52 93 2.0 2.0 0.00 0.00 0.00 78 1012.2
20260509103033 52 112 2.0 5.0 0.00 0.00 0.00 78 1012.3
20260509102530 52 94 4.0 7.0 0.00 0.00 0.00 78 1012.3
20260509102027 52 125 4.0 8.0 0.00 0.00 0.00 78 1012.6
20260509101523 52 117 6.0 7.0 0.00 0.00 0.00 78 1012.3
20260509101020 52 110 5.0 5.0 0.00 0.00 0.00 78 1012.1
20260509100517 52 63 6.0 7.0 0.00 0.00 0.00 78 1012.1
20260509100014 52 97 3.0 7.0 0.00 0.00 0.00 77 1012.0
20260509095510 52 82 5.0 8.0 0.00 0.00 0.00 77 1012.2
20260509095008 52 95 4.0 6.0 0.00 0.00 0.00 77 1012.1
20260509094504 52 107 2.0 3.0 0.00 0.00 0.00 77 1012.5
20260509094001 52 113 3.0 3.0 0.00 0.00 0.00 77 1012.4
20260509093500 52 104 2.0 3.0 0.00 0.00 0.00 76 1012.5
20260509092957 52 105 3.0 4.0 0.00 0.00 0.00 77 1012.4
20260509092455 52 101 2.0 3.0 0.00 0.00 0.00 77 1012.4
20260509091953 52 109 2.0 3.0 0.00 0.00 0.00 77 1012.5
20260509091450 52 95 2.0 4.0 0.00 0.00 0.00 77 1012.4
20260509090947 52 106 2.0 3.0 0.00 0.00 0.00 77 1012.5
20260509090444 52 92 3.0 5.0 0.00 0.00 0.00 77 1012.4
20260509085941 52 88 2.0 6.0 0.00 0.00 0.00 78 1012.2
20260509085438 51 102 2.0 3.0 0.00 0.00 0.00 78 1012.5
20260509084934 52 98 1.0 4.0 0.00 0.00 0.00 78 1012.3
20260509084432 52 91 4.0 4.0 0.00 0.00 0.00 77 1012.8
20260509083929 52 82 2.0 3.0 0.00 0.00 0.00 76 1012.7
20260509083426 52 83 2.0 3.0 0.00 0.00 0.00 76 1012.8
20260509082923 52 103 2.0 3.0 0.00 0.00 0.00 76 1012.9
20260509082420 52 127 2.0 4.0 0.00 0.00 0.00 77 1012.8
20260509081917 52 146 2.0 3.0 0.00 0.00 0.00 77 1012.9
20260509081415 52 63 0.0 3.0 0.00 0.00 0.00 78 1013.0
20260509080912 52 104 2.0 2.0 0.00 0.00 0.00 78 1013.1
20260509080410 52 177 0.0 1.0 0.00 0.00 0.00 78 1013.0
20260509075908 52 231 0.0 0.0 0.00 0.00 0.00 78 1013.0
20260509075404 52 129 0.0 2.0 0.00 0.00 0.00 78 1012.9
20260509074902 52 99 0.0 2.0 0.00 0.00 0.00 78 1013.0
20260509074359 52 49 0.0 2.0 0.00 0.00 0.00 77 1012.8
20260509073855 52 125 0.0 2.0 0.00 0.00 0.00 77 1012.9
20260509073352 52 85 1.0 2.0 0.00 0.00 0.00 76 1012.8
20260509072848 53 23 1.0 2.0 0.00 0.00 0.00 76 1012.9
20260509072345 53 11 0.0 2.0 0.00 0.00 0.00 76 1013.0
20260509071842 53 346 1.0 2.0 0.00 0.00 0.00 76 1012.7